Time,TemperatureF,DewpointF,PressureIn,WindDirection,WindDirectionDegrees,WindSpeedMPH,WindSpeedGustMPH,Humidity,HourlyPrecipIn,Conditions,Clouds,dailyrainin,SoftwareType,DateUTC
2013-07-14 00:13:00,66.2,65.0,30.23,West,273,0.0,0.0,96,0.00,,,0.05,weatherlink.com 1.10,2013-07-14 04:13:00,
2013-07-14 00:28:00,65.9,65.0,30.23,West,273,0.0,0.0,95,0.00,,,0.05,weatherlink.com 1.10,2013-07-14 04:28:00,
2013-07-14 00:43:00,65.5,64.0,30.24,West,273,0.0,0.0,95,0.00,,,0.05,weatherlink.com 1.10,2013-07-14 04:43:00,
2013-07-14 00:59:00,65.3,64.0,30.24,West,273,0.0,0.0,95,0.00,,,0.05,weatherlink.com 1.10,2013-07-14 04:59:00,
2013-07-14 01:15:00,65.7,65.0,30.24,West,273,0.0,2.0,96,0.00,,,0.05,weatherlink.com 1.10,2013-07-14 05:15:00,
2013-07-14 01:29:00,65.7,65.0,30.24,West,273,1.0,2.0,96,0.00,,,0.05,weatherlink.com 1.10,2013-07-14 05:29:00,
2013-07-14 01:44:00,65.4,64.0,30.24,West,273,0.0,0.0,96,0.00,,,0.05,weatherlink.com 1.10,2013-07-14 05:44:00,
2013-07-14 01:59:00,65.1,64.0,30.24,West,273,0.0,2.0,96,0.00,,,0.05,weatherlink.com 1.10,2013-07-14 05:59:00,
2013-07-14 02:14:00,64.9,64.0,30.24,West,273,0.0,0.0,96,0.00,,,0.05,weatherlink.com 1.10,2013-07-14 06:14:00,
2013-07-14 02:29:00,65.4,64.0,30.24,West,273,1.0,2.0,96,0.00,,,0.05,weatherlink.com 1.10,2013-07-14 06:29:00,
2013-07-14 02:44:00,65.5,64.0,30.24,West,273,0.0,1.0,96,0.00,,,0.05,weatherlink.com 1.10,2013-07-14 06:44:00,
2013-07-14 03:00:00,65.2,64.0,30.24,West,273,0.0,0.0,96,0.00,,,0.05,weatherlink.com 1.10,2013-07-14 07:00:00,
2013-07-14 03:15:00,64.7,64.0,30.25,West,273,0.0,0.0,96,0.00,,,0.05,weatherlink.com 1.10,2013-07-14 07:15:00,
2013-07-14 03:30:00,64.4,63.0,30.25,West,273,0.0,0.0,96,0.00,,,0.05,weatherlink.com 1.10,2013-07-14 07:30:00,
2013-07-14 03:45:00,64.0,63.0,30.25,West,273,0.0,0.0,96,0.00,,,0.05,weatherlink.com 1.10,2013-07-14 07:45:00,
2013-07-14 04:00:00,64.2,63.0,30.25,West,273,0.0,0.0,96,0.00,,,0.05,weatherlink.com 1.10,2013-07-14 08:00:00,
2013-07-14 04:15:00,63.9,63.0,30.24,West,273,0.0,0.0,96,0.00,,,0.05,weatherlink.com 1.10,2013-07-14 08:15:00,
2013-07-14 04:30:00,63.9,63.0,30.24,West,273,0.0,1.0,97,0.00,,,0.05,weatherlink.com 1.10,2013-07-14 08:30:00,
2013-07-14 04:45:00,64.0,63.0,30.24,West,273,0.0,3.0,97,0.00,,,0.05,weatherlink.com 1.10,2013-07-14 08:45:00,
2013-07-14 05:00:00,64.1,63.0,30.24,West,273,0.0,1.0,97,0.00,,,0.05,weatherlink.com 1.10,2013-07-14 09:00:00,
2013-07-14 05:15:00,64.0,63.0,30.24,West,273,0.0,0.0,97,0.00,,,0.00,weatherlink.com 1.10,2013-07-14 09:15:00,
2013-07-14 05:30:00,64.3,64.0,30.24,NNE,22,0.0,2.0,97,0.00,,,0.00,weatherlink.com 1.10,2013-07-14 09:30:00,
2013-07-14 05:45:00,63.5,62.0,30.25,ESE,121,2.0,2.0,96,0.00,,,0.00,weatherlink.com 1.10,2013-07-14 09:45:00,
2013-07-14 06:01:00,63.2,62.0,30.25,ESE,120,0.0,2.0,97,0.00,,,0.00,weatherlink.com 1.10,2013-07-14 10:01:00,
2013-07-14 06:16:00,63.2,62.0,30.25,ESE,120,0.0,2.0,97,0.00,,,0.00,weatherlink.com 1.10,2013-07-14 10:16:00,
2013-07-14 06:32:00,63.4,63.0,30.25,ESE,120,0.0,2.0,97,0.00,,,0.00,weatherlink.com 1.10,2013-07-14 10:32:00,
2013-07-14 06:47:00,64.3,64.0,30.26,ESE,120,0.0,0.0,97,0.00,,,0.00,weatherlink.com 1.10,2013-07-14 10:47:00,
2013-07-14 07:01:00,64.9,64.0,30.26,ESE,120,0.0,1.0,97,0.00,,,0.00,weatherlink.com 1.10,2013-07-14 11:01:00,
2013-07-14 07:16:00,65.5,65.0,30.27,ESE,120,0.0,1.0,97,0.00,,,0.00,weatherlink.com 1.10,2013-07-14 11:16:00,
2013-07-14 07:31:00,66.1,65.0,30.27,ESE,120,0.0,0.0,97,0.00,,,0.00,weatherlink.com 1.10,2013-07-14 11:31:00,
2013-07-14 07:47:00,67.2,66.0,30.27,ESE,120,0.0,0.0,97,0.00,,,0.00,weatherlink.com 1.10,2013-07-14 11:47:00,
2013-07-14 08:02:00,67.3,67.0,30.27,ESE,120,0.0,3.0,97,0.00,,,0.00,weatherlink.com 1.10,2013-07-14 12:02:00,
2013-07-14 08:17:00,67.8,67.0,30.27,ESE,120,0.0,1.0,97,0.00,,,0.00,weatherlink.com 1.10,2013-07-14 12:17:00,
2013-07-14 08:32:00,69.8,69.0,30.27,ESE,116,0.0,2.0,97,0.00,,,0.00,weatherlink.com 1.10,2013-07-14 12:32:00,
2013-07-14 08:47:00,70.5,70.0,30.27,East,101,1.0,2.0,97,0.00,,,0.00,weatherlink.com 1.10,2013-07-14 12:47:00,
2013-07-14 09:02:00,72.1,70.0,30.26,East,96,0.0,2.0,94,0.00,,,0.00,weatherlink.com 1.10,2013-07-14 13:02:00,
2013-07-14 09:17:00,74.8,70.0,30.26,NE,43,0.0,5.0,86,0.00,,,0.00,weatherlink.com 1.10,2013-07-14 13:17:00,
2013-07-14 09:33:00,75.4,71.0,30.26,NNW,331,2.0,5.0,85,0.00,,,0.00,weatherlink.com 1.10,2013-07-14 13:33:00,
2013-07-14 09:48:00,76.3,71.0,30.25,WNW,299,3.0,7.0,83,0.00,,,0.00,weatherlink.com 1.10,2013-07-14 13:48:00,
2013-07-14 10:03:00,76.0,70.0,30.26,NW,321,3.0,7.0,81,0.00,,,0.00,weatherlink.com 1.10,2013-07-14 14:03:00,
2013-07-14 10:18:00,75.7,70.0,30.25,NNW,333,0.0,5.0,82,0.00,,,0.00,weatherlink.com 1.10,2013-07-14 14:18:00,
2013-07-14 10:33:00,75.9,71.0,30.25,NW,311,3.0,7.0,85,0.00,,,0.00,weatherlink.com 1.10,2013-07-14 14:33:00,
2013-07-14 10:48:00,76.3,70.0,30.24,NW,311,4.0,4.0,82,0.00,,,0.00,weatherlink.com 1.10,2013-07-14 14:48:00,
2013-07-14 11:03:00,77.8,71.0,30.24,SE,140,0.0,6.0,79,0.00,,,0.00,weatherlink.com 1.10,2013-07-14 15:03:00,
2013-07-14 11:18:00,77.5,69.0,30.24,West,264,0.0,6.0,76,0.00,,,0.00,weatherlink.com 1.10,2013-07-14 15:18:00,
2013-07-14 11:34:00,77.1,70.0,30.25,NNE,21,2.0,3.0,78,0.00,,,0.00,weatherlink.com 1.10,2013-07-14 15:34:00,
2013-07-14 11:49:00,76.9,71.0,30.25,NNW,348,2.0,5.0,81,0.00,,,0.00,weatherlink.com 1.10,2013-07-14 15:49:00,
2013-07-14 12:04:00,77.4,70.0,30.25,West,271,2.0,3.0,78,0.00,,,0.00,weatherlink.com 1.10,2013-07-14 16:04:00,
2013-07-14 12:19:00,77.6,71.0,30.24,NNW,340,1.0,4.0,80,0.00,,,0.00,weatherlink.com 1.10,2013-07-14 16:19:00,
2013-07-14 12:34:00,78.0,70.0,30.24,West,274,2.0,5.0,77,0.00,,,0.00,weatherlink.com 1.10,2013-07-14 16:34:00,
2013-07-14 12:50:00,78.2,70.0,30.23,NW,309,1.0,5.0,76,0.00,,,0.00,weatherlink.com 1.10,2013-07-14 16:50:00,
2013-07-14 13:04:00,79.4,71.0,30.23,NNW,343,1.0,3.0,76,0.00,,,0.00,weatherlink.com 1.10,2013-07-14 17:04:00,
2013-07-14 13:19:00,78.7,71.0,30.23,WSW,248,3.0,6.0,76,0.00,,,0.00,weatherlink.com 1.10,2013-07-14 17:19:00,
2013-07-14 13:34:00,79.5,73.0,30.23,NW,325,2.0,4.0,81,0.00,,,0.00,weatherlink.com 1.10,2013-07-14 17:34:00,
2013-07-14 13:50:00,79.7,72.0,30.23,ENE,64,3.0,7.0,77,0.00,,,0.00,weatherlink.com 1.10,2013-07-14 17:50:00,
2013-07-14 14:05:00,79.9,72.0,30.22,NE,44,0.0,5.0,77,0.00,,,0.00,weatherlink.com 1.10,2013-07-14 18:05:00,
2013-07-14 14:20:00,79.4,72.0,30.22,NE,38,0.0,4.0,77,0.00,,,0.00,weatherlink.com 1.10,2013-07-14 18:20:00,
2013-07-14 14:35:00,79.2,72.0,30.22,NNW,331,2.0,4.0,78,0.00,,,0.00,weatherlink.com 1.10,2013-07-14 18:35:00,
2013-07-14 14:50:00,79.6,72.0,30.22,NNW,346,0.0,3.0,77,0.00,,,0.00,weatherlink.com 1.10,2013-07-14 18:50:00,
2013-07-14 15:05:00,79.9,73.0,30.21,East,82,1.0,5.0,80,0.00,,,0.00,weatherlink.com 1.10,2013-07-14 19:05:00,
2013-07-14 15:20:00,80.9,74.0,30.21,ENE,76,1.0,2.0,79,0.00,,,0.00,weatherlink.com 1.10,2013-07-14 19:20:00,
2013-07-14 15:35:00,80.4,72.0,30.21,NW,321,2.0,3.0,75,0.00,,,0.00,weatherlink.com 1.10,2013-07-14 19:35:00,
2013-07-14 15:50:00,81.6,72.0,30.20,NW,321,0.0,2.0,73,0.00,,,0.00,weatherlink.com 1.10,2013-07-14 19:50:00,
2013-07-14 16:06:00,81.5,73.0,30.20,NW,321,3.0,3.0,76,0.00,,,0.00,weatherlink.com 1.10,2013-07-14 20:06:00,
2013-07-14 16:21:00,81.7,73.0,30.19,WNW,296,1.0,4.0,75,0.00,,,0.00,weatherlink.com 1.10,2013-07-14 20:21:00,
2013-07-14 16:36:00,81.6,71.0,30.19,West,276,2.0,4.0,71,0.00,,,0.00,weatherlink.com 1.10,2013-07-14 20:36:00,
2013-07-14 16:51:00,80.9,71.0,30.19,NW,326,2.0,5.0,72,0.00,,,0.00,weatherlink.com 1.10,2013-07-14 20:51:00,
2013-07-14 17:06:00,80.5,72.0,30.18,NW,320,2.0,5.0,74,0.00,,,0.00,weatherlink.com 1.10,2013-07-14 21:06:00,
2013-07-14 17:21:00,80.3,71.0,30.18,NNW,341,0.0,4.0,73,0.00,,,0.00,weatherlink.com 1.10,2013-07-14 21:21:00,
2013-07-14 17:36:00,80.0,72.0,30.18,NNW,342,2.0,5.0,77,0.00,,,0.00,weatherlink.com 1.10,2013-07-14 21:36:00,
2013-07-14 17:51:00,79.5,72.0,30.18,North,5,0.0,5.0,77,0.00,,,0.00,weatherlink.com 1.10,2013-07-14 21:51:00,
2013-07-14 18:06:00,79.0,72.0,30.18,NW,323,0.0,3.0,80,0.00,,,0.00,weatherlink.com 1.10,2013-07-14 22:06:00,
2013-07-14 18:22:00,79.3,73.0,30.18,NNW,344,1.0,2.0,80,0.00,,,0.00,weatherlink.com 1.10,2013-07-14 22:22:00,
2013-07-14 18:38:00,79.6,72.0,30.17,NNE,19,0.0,2.0,78,0.00,,,0.00,weatherlink.com 1.10,2013-07-14 22:38:00,
2013-07-14 18:52:00,80.3,73.0,30.17,NNE,12,0.0,6.0,79,0.00,,,0.00,weatherlink.com 1.10,2013-07-14 22:52:00,
2013-07-14 19:07:00,80.5,73.0,30.17,WSW,242,1.0,4.0,77,0.00,,,0.00,weatherlink.com 1.10,2013-07-14 23:07:00,
2013-07-14 19:22:00,78.9,73.0,30.17,WSW,242,0.0,2.0,82,0.00,,,0.00,weatherlink.com 1.10,2013-07-14 23:22:00,
2013-07-14 19:37:00,77.2,72.0,30.17,WSW,242,0.0,0.0,84,0.00,,,0.00,weatherlink.com 1.10,2013-07-14 23:37:00,
2013-07-14 19:52:00,76.5,72.0,30.17,WSW,242,0.0,0.0,86,0.00,,,0.00,weatherlink.com 1.10,2013-07-14 23:52:00,
2013-07-14 20:07:00,74.9,71.0,30.18,WSW,242,0.0,0.0,87,0.00,,,0.00,weatherlink.com 1.10,2013-07-15 00:07:00,
2013-07-14 20:22:00,74.2,71.0,30.18,WSW,242,0.0,1.0,89,0.00,,,0.00,weatherlink.com 1.10,2013-07-15 00:22:00,
2013-07-14 20:38:00,73.3,71.0,30.17,WSW,242,0.0,2.0,91,0.00,,,0.00,weatherlink.com 1.10,2013-07-15 00:38:00,
2013-07-14 20:53:00,72.2,70.0,30.18,WSW,242,0.0,2.0,92,0.00,,,0.00,weatherlink.com 1.10,2013-07-15 00:53:00,
2013-07-14 21:08:00,71.5,69.0,30.18,NW,323,0.0,2.0,93,0.00,,,0.00,weatherlink.com 1.10,2013-07-15 01:08:00,
2013-07-14 21:23:00,70.8,69.0,30.19,NW,323,2.0,2.0,93,0.00,,,0.00,weatherlink.com 1.10,2013-07-15 01:23:00,
2013-07-14 21:38:00,70.3,69.0,30.18,NW,323,0.0,3.0,94,0.00,,,0.00,weatherlink.com 1.10,2013-07-15 01:38:00,
2013-07-14 21:53:00,69.9,68.0,30.18,NW,323,0.0,1.0,94,0.00,,,0.00,weatherlink.com 1.10,2013-07-15 01:53:00,
2013-07-14 22:08:00,69.7,68.0,30.18,NW,323,0.0,1.0,94,0.00,,,0.00,weatherlink.com 1.10,2013-07-15 02:08:00,
2013-07-14 22:23:00,69.2,68.0,30.18,NW,323,0.0,0.0,94,0.00,,,0.00,weatherlink.com 1.10,2013-07-15 02:23:00,
2013-07-14 22:38:00,69.0,68.0,30.19,NW,323,0.0,2.0,95,0.00,,,0.00,weatherlink.com 1.10,2013-07-15 02:38:00,
2013-07-14 22:53:00,68.7,67.0,30.18,NW,323,1.0,2.0,95,0.00,,,0.00,weatherlink.com 1.10,2013-07-15 02:53:00,
2013-07-14 23:08:00,68.7,67.0,30.18,NW,323,0.0,2.0,95,0.00,,,0.00,weatherlink.com 1.10,2013-07-15 03:08:00,
2013-07-14 23:24:00,68.6,67.0,30.18,NW,323,0.0,0.0,95,0.00,,,0.00,weatherlink.com 1.10,2013-07-15 03:24:00,
2013-07-14 23:41:00,68.5,67.0,30.19,NW,323,0.0,1.0,96,0.00,,,0.00,weatherlink.com 1.10,2013-07-15 03:41:00,
2013-07-14 23:54:00,68.6,68.0,30.18,NW,323,0.0,1.0,96,0.00,,,0.00,weatherlink.com 1.10,2013-07-15 03:54:00,